This demonstration page uses our WeatherBlox Daily Observations layout. Learn more.

Left ArrowRight Arrow

Hourly Observations for May 14, 2017

Temp ( °F °C ) Dew Point ( °F °C ) Humidity (%) Winds ( mph kmh ) Pressure ( in mb ) Visibility ( mi km ) Precip ( " mm )
12:53 am 00:53 Clear 76 24.4 49 9.4 39 39 SSE 14 22 29.72 1006 10 16 0.00 0.00
1:53 am 01:53 Clear 74 23.3 50 10 43 43 SE 13 20 29.71 1006 10 16 0.00 0.00
2:53 am 02:53 Clear 72 22.2 51 10.6 48 48 SE 9 15 29.70 1006 10 16 0.00 0.00
3:53 am 03:53 Clear 69 20.6 51 10.6 53 53 SSE 8 13 29.71 1006 10 16 0.00 0.00
4:53 am 04:53 Clear 70 21.1 50 10 49 49 SE 14 22 29.70 1006 10 16 0.00 0.00
5:53 am 05:53 Clear 69 20.6 50 10 51 51 SE 13 20 29.70 1006 10 16 0.00 0.00
6:53 am 06:53 Clear 69 20.6 50 10 51 51 SE 14 22 29.77 1008 10 16 0.00 0.00
7:53 am 07:53 Sunny 69 20.6 51 10.6 53 53 SE 9 15 29.73 1007 10 16 0.00 0.00
8:53 am 08:53 Sunny 73 22.8 51 10.6 46 46 SSE 10 17 29.74 1007 10 16 0.00 0.00
9:53 am 09:53 Sunny 79 26.1 50 10 36 36 SSE 8 13 29.74 1007 10 16 0.00 0.00
10:53 am 10:53 Sunny 86 30 48 8.9 27 27 S 8 13 29.73 1007 10 16 0.00 0.00
11:53 am 11:53 Sunny 92 33.3 42 5.6 18 18 WSW 12 19 29.72 1006 10 16 0.00 0.00
12:53 pm 12:53 Sunny 94 34.4 41 5 16 16 S 12 19 29.70 1006 10 16 0.00 0.00
1:53 pm 13:53 Sunny 97 36.1 38 3.3 13 13 SSW 13 20 29.67 1005 10 16 0.00 0.00
2:53 pm 14:53 Sunny 98 36.7 40 4.4 13 13 SW 13 20 29.66 1004 10 16 0.00 0.00
3:53 pm 15:53 Sunny 99 37.2 35 1.7 11 11 SSE 13 20 29.63 1003 10 16 0.00 0.00
4:53 pm 16:53 Sunny 99 37.2 34 1.1 10 10 S 18 30 29.61 1003 10 16 0.00 0.00
5:39 pm 17:39 Mostly Sunny 90 32.2 41 5 18 18 SW 26 43 29.56 1001 7 11 0.00 0.00
5:49 pm 17:49 Partly Cloudy with Thunderstorms 88 31 45 7 22 22 SW 30 48 29.56 1001 5 8 0.00 0.00
5:53 pm 17:53 Windy with Storms Likely 88 31.1 43 6.1 21 21 SW 35 56 29.64 1004 4 6 0.00 0.03
6:29 pm 18:29 Partly Cloudy with Nearby Thunderstorms N/A N/A N/A undefined N/A N/A N/A 0.00 0.03
6:53 pm 18:53 undefined N/A N/A N/A undefined N/A N/A N/A 0.00 0.03
8:53 pm 20:53 Clear 80 26.7 54 12.2 41 41 ESE 10 17 29.66 1005 10 16 0.00 0.00
9:53 pm 21:53 Clear 81 27.2 54 12.2 39 39 SE 16 26 29.68 1005 10 16 0.00 0.00
10:53 pm 22:53 Clear 81 27.2 55 12.8 41 41 SE 18 30 29.68 1005 10 16 0.00 0.00
11:53 pm 23:53 Clear 79 26.1 56 13.3 45 45 SE 15 24 29.68 1005 10 16 0.00 0.00

Powered by AerisWeather